OBJECT F, 47859

Orbit data source: Space-Track

You're viewing an Uncataloged Satellite

Recently launched and/or uncataloged satellites may have evolving metadata. Metadata may include but not limited to: Owner, Maufacturer, Bus, Motor, and Mission.

OBJECT F, 47859 is a satellite owned by CNSA (CN) in LEO that was launched on Sat, 13 Mar 2021 UTC launched from the Jiuquan Satellite Launch Center, China (JSC). Unknown objects in Earth's orbit typically refer to objects detected orbiting the Earth but have not yet been identified or cataloged. These objects could be anything from previously untracked satellites, spent rocket stages, debris from satellite collisions, or even natural meteoroids temporarily captured by Earth's gravity.

Loading next visibility...
Identifier
47859, 2021-020F
Orbit
LEO
Country
Flag of CNCN / PRC
Related business
Manufacturer
Unknown
Mission
Spacecraft
Bus & Motor
Unknown
Mass
Unknown
Launch date (UTC)
2021-03-13 (5 years ago)
Launch vehicle
Unknown
Launch site
Jiuquan Satellite Launch Center, China (JSC)
Object type
Unknown
Shape & HBR
Unknown shape, 2.8 m
Radar Cross Section
Large (>1 m²)

Expand to show TLE details & history
Last TLE update: 22 hours ago

TLE from 22 hours ago
0 OBJECT F
1 47859U 21020F   26172.50436913 -.00000037  00000-0  82310-4 0  9996
2 47859  63.4075 255.0438 0172694   1.8174 358.3442 13.44643127258983
Epoch: 2026-06-21T12:06Z
TLE epoch observation values (Epoch: 2026-06-21T12:06:17.492Z)
Latitude
-0.00011°
Longitude
163.76717°
Altitude
964.837 km
Speed
7.433 km/s
True Right ascension
17h 00m 10s
True Declination
0° 00' 00"
Sunlit
Object was in full shadow at epoch
Visualization orbit readout
Latitude
Unknown
Longitude
Unknown
Altitude
Unknown
Speed
Unknown
Apparent Right ascension
Unknown
Apparent Declination
Unknown
Sunlit
N/A
Visualization observer readout
Local Sidereal Time
21:30:50
Azimuth
Unknown
Elevation
Unknown
Doppler factor
Unknown
Orbital elements
Apogee altitude
1,219.847 km
Perigee altitude
961.876 km
Semi-major axis
7,468.998 km
Eccentricity
0.01727
Inclination
63.4075°
RAAN
255.0438°
Arg. of periapsis
1.8174°
True anomaly
358.28576°
Mean anomaly
358.3442°
Eccentric anomaly
358.31511°
Mean motion
3.3624 °/min
Orbital period
107.07 mins
BSTAR
0.00008231
Loading maneuver chart data...
Computing Atmospheric mass density...
Loading historical data...
Loading historical data...
Loading historical data...
Loading historical data...
Loading historical data...
Loading historical data...
Loading historical data...
Other satellites on launch #20 in the year 2021 (2021-03-13 UTC)

Documentation

Showing up to 5 results
|